This is the latest recevied weather packets stored in our database for station/object K4IR. If no packets are shown the sender has not sent any weather packets the latest 10 day(s).
| Time | Temp. | Humidity | Pressure | Rain* | Wind** | Luminosity | Snow |
|---|---|---|---|---|---|---|---|
| 1788449364 | 31.67° C | 69% | 1019.3 hPa | 0 mm | - | 131 W/m² | - |
| 1788448761 | 31.11° C | 72% | 1019.3 hPa | 0 mm | - | 114 W/m² | - |
| 1788448155 | 30.56° C | 72% | 1019.1 hPa | 0 mm | - | 105 W/m² | - |
| 1788447551 | 30.56° C | 74% | 1019.3 hPa | 0 mm | - | 100 W/m² | - |
| 1788446946 | 30.56° C | 73% | 1019.2 hPa | 0 mm | - | 99 W/m² | - |
| 1788446341 | 30° C | 74% | 1019.2 hPa | 0 mm | - | 239 W/m² | - |
| 1788445739 | 30° C | 76% | 1019.1 hPa | 0 mm | - | 112 W/m² | - |
| 1788445136 | 30° C | 76% | 1019 hPa | 0 mm | - | 333 W/m² | - |
| 1788444533 | 29.44° C | 74% | 1019 hPa | 0 mm | - | 334 W/m² | - |
| 1788443930 | 29.44° C | 80% | 1019 hPa | 0 mm | - | 168 W/m² | - |
| 1788443330 | 28.89° C | 83% | 1019 hPa | 0 mm | - | 161 W/m² | - |
| 1788442728 | 28.89° C | 85% | 1018.8 hPa | 0 mm | - | 105 W/m² | - |
| 1788442125 | 28.89° C | 85% | 1018.6 hPa | 0 mm | - | 85 W/m² | - |
| 1788441521 | 27.78° C | 90% | 1019 hPa | 0 mm | - | 93 W/m² | - |
| 1788440920 | 27.22° C | 93% | 1019.2 hPa | 0 mm | - | 81 W/m² | - |
| 1788440319 | 26.67° C | 97% | 1019.1 hPa | 0 mm | - | 173 W/m² | - |
| 1788439719 | 26.67° C | 98% | 1019.1 hPa | 0 mm | - | 100 W/m² | - |
| 1788439114 | 25.56° C | 99% | 1019.1 hPa | 0 mm | - | 52 W/m² | - |
| 1788438513 | 25.56° C | 99% | 1019.1 hPa | 0 mm | - | 71 W/m² | - |
| 1788437913 | 24.44° C | 99% | 1019.2 hPa | 0 mm | - | 45 W/m² | - |
| 1788437310 | 23.89° C | 99% | 1019.1 hPa | 0 mm | - | 42 W/m² | - |
| 1788436707 | 23.33° C | 99% | 1019 hPa | 0 mm | - | 40 W/m² | - |
| 1788436102 | 22.78° C | 99% | 1018.9 hPa | 0 mm | - | 36 W/m² | - |
| 1788435499 | 22.78° C | 99% | 1019.1 hPa | 0 mm | - | 31 W/m² | - |
| 1788434896 | 22.22° C | 99% | 1018.9 hPa | 0 mm | - | 25 W/m² | - |
* Rain latest hour (hover to see other rain measurements)
** Current wind speed in m/s (hover to see current wind gust speed)